Weather History for KTRM - February, 2013

Change the Weather History Date:

Thursday, February 7, 2013

  Actual Average Record
Temperature  
Mean Temperature 56 °F 57 °F  
Max Temperature 74 °F 74 °F 95 °F (1996)
Min Temperature 38 °F 40 °F 24 °F (2003)
Degree Days  
Heating Degree Days 9 9  
Month to date heating degree days 25 63  
Since 1 July heating degree days 852 923  
Cooling Degree Days 0 0  
Month to date cooling degree days 0 0  
Year to date cooling degree days 0 2  
Growing Degree Days 7 (Base 50)    
Moisture  
Dew Point 38 °F    
Average Humidity 53    
Maximum Humidity 86    
Minimum Humidity 19    
Precipitation  
Precipitation 0.00 in 0.02 in 0.33 in (1976)
Month to date precipitation T 0.14  
Year to date precipitation 0.37 0.81  
Since 1 July precipitation 2.55  
Snow  
Snow 0.00 in - - ()
Month to date snowfall 0.0  
Year to date snowfall 0.0  
Since 1 July snowfall 0.0  
Snow Depth 0.00 in    
Sea Level Pressure  
Sea Level Pressure 29.95 in    
Wind  
Wind Speed 4 mph (North)    
Max Wind Speed 12 mph    
Max Gust Speed 15 mph    
Visibility 8 miles    
Events      
T = Trace of Precipitation, MM = Missing Value Source: NWS Daily Summary

Daily Weather History Graph

Daily Weather History Graph

Search for Another Location

Airport or City:

Trip Planner

Search our weather history database for the weather conditions in past years. The results will help you decide how hot, cold, wet, or windy it might be!

Date:

Astronomy

Feb. 07, 2013 Rise Set
Actual Time 6:36 AM PST 5:22 PM PST
Civil Twilight 6:10 AM PST 5:47 PM PST
Nautical Twilight 5:40 AM PST 6:17 PM PST
Astronomical Twilight 5:11 AM PST 6:46 PM PST
Moon 4:15 AM PST (2/7) 2:55 PM PST (2/7)
Length of Visible Light 11h 37m
Length of Day
10h 45m
Waning Crescent, 8% of the Moon is Illuminated
Feb 7
Waning Crescent
Feb 9
New
Feb 17
First Quarter
Feb 25
Full
Mar 4
Last Quarter

Hourly Weather History & Observations

Time (PST) Temp. Windchill Dew Point Humidity Pressure Visibility Wind Dir Wind Speed Gust Speed Precip Events Conditions
12:52 AM 55.0 °F - 43.0 °F 64% 30.02 in 6.0 mi North 4.6 mph - N/A   Haze
1:52 AM 54.0 °F - 42.1 °F 64% 30.02 in 7.0 mi North 8.1 mph - N/A   Clear
2:52 AM 50.0 °F - 39.9 °F 68% 30.02 in 7.0 mi North 5.8 mph - N/A   Clear
3:52 AM 44.1 °F - 37.0 °F 76% 30.01 in 6.0 mi Calm Calm - N/A   Haze
4:52 AM 44.1 °F 41.5 °F 37.0 °F 76% 30.00 in 7.0 mi NNE 4.6 mph - N/A   Clear
5:52 AM 41.0 °F - 37.0 °F 86% 30.02 in 7.0 mi Calm Calm - N/A   Clear
7:52 AM 48.9 °F - 39.0 °F 69% 30.05 in 5.0 mi Calm Calm - N/A   Haze
8:52 AM 57.9 °F - 41.0 °F 53% 30.06 in 8.0 mi South 4.6 mph - N/A   Clear
9:52 AM 63.0 °F - 45.0 °F 52% 30.06 in 7.0 mi Calm Calm - N/A   Clear
10:52 AM 66.9 °F - 41.0 °F 39% 30.04 in 8.0 mi Calm Calm - N/A   Clear
11:52 AM 70.0 °F - 39.9 °F 33% 30.01 in 8.0 mi Variable 3.5 mph - N/A   Clear
12:52 PM 73.0 °F - 33.1 °F 23% 29.97 in 10.0 mi SSE 6.9 mph - N/A   Clear
1:52 PM 73.9 °F - 28.9 °F 19% 29.94 in 10.0 mi SSE 10.4 mph - N/A   Clear
2:52 PM 73.0 °F - 30.9 °F 21% 29.92 in 10.0 mi SE 5.8 mph - N/A   Clear
3:52 PM 73.0 °F - 30.9 °F 21% 29.91 in 10.0 mi South 5.8 mph - N/A   Clear
4:52 PM 68.0 °F - 34.0 °F 28% 29.88 in 10.0 mi ESE 4.6 mph - N/A   Clear
5:52 PM 60.1 °F - 33.1 °F 36% 29.88 in 10.0 mi Calm Calm - N/A   Clear
6:52 PM 59.0 °F - 34.0 °F 39% 29.88 in 10.0 mi Calm Calm - N/A   Clear
7:52 PM 55.9 °F - 36.0 °F 47% 29.87 in 10.0 mi NNW 3.5 mph - N/A   Clear
8:52 PM 62.1 °F - 43.0 °F 50% 29.86 in 10.0 mi NNW 8.1 mph - N/A   Clear
9:52 PM 60.1 °F - 43.0 °F 53% 29.85 in 10.0 mi NNW 11.5 mph - N/A   Clear
10:52 PM 59.0 °F - 39.9 °F 49% 29.84 in 10.0 mi North 5.8 mph - N/A   Clear
11:52 PM 60.1 °F - 37.0 °F 42% 29.84 in 9.0 mi NW 17.3 mph 26.5 mph N/A   Clear